STTW-4 1 20473U 90011A 21060.90233142 .00000072 00000-0 00000-0 0 9999 2 20473 15.0136 1.8315 0006738 60.2664 114.5033 1.00278458113658 CZ-3 R/B 1 20474U 90011B 21061.72438105 .00001164 00000-0 41263-3 0 9999 2 20474 30.4927 353.7573 6691215 113.9605 326.9963 3.04082747 92242